When you browse on this site, cookies collect data to enhance your experience and personalize the content and advertising you see.
Visit our Privacy Policy to learn more. By continuing to use the site, you agree to this use of cookies and data.
  • In Schweiz
  • Länderverzeichnis
  • Für 7 Tage
  • Wassertemperatur
  • Satellitenkarten
  • Wetterkarte
  • Widgets
  • user-avatar
    Anmelden

    Stündliche Wetter Algier

    Heute, 20 März, Mittwoch

    Zeit Temperatur Niederschläge Wind Luftdruck Luftfeuchtigkeit
    00:00 +10°C° 0.6 mm 2 m/S 753 mmHg 81%
    01:00 +10°C° 0.8 mm 2 m/S 753 mmHg 80%
    02:00 +10°C° 0.8 mm 2 m/S 753 mmHg 80%
    03:00 +10°C° 0.8 mm 2 m/S 753 mmHg 79%
    04:00 +10°C° 0.4 mm 2 m/S 753 mmHg 79%
    05:00 +10°C° 0.4 mm 2 m/S 753 mmHg 78%
    06:00 +9°C° 0.4 mm 2 m/S 754 mmHg 78%
    07:00 +10°C° 0.5 mm 3 m/S 754 mmHg 72%
    08:00 +11°C° 0.5 mm 4 m/S 754 mmHg 67%
    09:00 +12°C° 0.5 mm 4 m/S 754 mmHg 61%
    10:00 +13°C° 0.4 mm 5 m/S 754 mmHg 58%
    11:00 +13°C° 0.4 mm 5 m/S 754 mmHg 55%
    12:00 +14°C° 0.4 mm 5 m/S 755 mmHg 52%
    13:00 +14°C° 0.4 mm 5 m/S 754 mmHg 54%
    14:00 +13°C° 0.4 mm 5 m/S 754 mmHg 55%
    15:00 +13°C° 0.4 mm 5 m/S 753 mmHg 56%
    16:00 +12°C° 0.5 mm 5 m/S 753 mmHg 60%
    17:00 +12°C° 0.5 mm 4 m/S 754 mmHg 64%
    18:00 +11°C° 0.5 mm 4 m/S 754 mmHg 67%
    19:00 +11°C° 0.4 mm 3 m/S 754 mmHg 69%
    20:00 +10°C° 0.4 mm 3 m/S 755 mmHg 70%
    21:00 +10°C° 0.4 mm 3 m/S 755 mmHg 71%
    22:00 +10°C° 0.1 mm 2 m/S 755 mmHg 72%
    23:00 +11°C° 0.1 mm 1 m/S 755 mmHg 74%

    Morgen, 21 März, Donnerstag

    Zeit Temperatur Niederschläge Wind Luftdruck Luftfeuchtigkeit
    00:00 +10°C° 0.1 mm 1 m/S 755 mmHg 75%
    01:00 +10°C° 0 mm 1 m/S 755 mmHg 76%
    02:00 +10°C° 0 mm 1 m/S 754 mmHg 78%
    03:00 +9°C° 0 mm 2 m/S 754 mmHg 80%
    04:00 +9°C° 0.1 mm 2 m/S 754 mmHg 80%
    05:00 +9°C° 0.1 mm 2 m/S 754 mmHg 81%
    06:00 +10°C° 0.1 mm 1 m/S 754 mmHg 82%
    07:00 +11°C° 0 mm 1 m/S 754 mmHg 78%
    08:00 +12°C° 0 mm 2 m/S 754 mmHg 74%
    09:00 +13°C° 0 mm 2 m/S 754 mmHg 71%
    10:00 +13°C° 0.1 mm 2 m/S 754 mmHg 70%
    11:00 +13°C° 0.1 mm 2 m/S 754 mmHg 69%
    12:00 +13°C° 0.1 mm 3 m/S 753 mmHg 68%
    13:00 +12°C° 0.4 mm 3 m/S 753 mmHg 73%
    14:00 +12°C° 0.4 mm 4 m/S 753 mmHg 78%
    15:00 +12°C° 0.4 mm 4 m/S 752 mmHg 83%
    16:00 +12°C° 0.6 mm 5 m/S 752 mmHg 83%
    17:00 +12°C° 0.6 mm 5 m/S 753 mmHg 84%
    18:00 +11°C° 0.6 mm 6 m/S 753 mmHg 84%
    19:00 +12°C° 0.3 mm 5 m/S 753 mmHg 85%
    20:00 +12°C° 0.3 mm 5 m/S 754 mmHg 85%
    21:00 +12°C° 0.3 mm 4 m/S 754 mmHg 86%
    22:00 +12°C° 0.1 mm 4 m/S 754 mmHg 86%
    23:00 +12°C° 0.1 mm 3 m/S 754 mmHg 86%

    übermorgen, 22 März, Freitag

    Zeit Temperatur Niederschläge Wind Luftdruck Luftfeuchtigkeit
    00:00 +11°C° 0.1 mm 3 m/S 754 mmHg 86%
    01:00 +12°C° 0 mm 2 m/S 754 mmHg 86%
    02:00 +12°C° 0 mm 2 m/S 753 mmHg 86%
    03:00 +12°C° 0 mm 2 m/S 753 mmHg 86%
    04:00 +12°C° 0 mm 2 m/S 753 mmHg 86%
    05:00 +12°C° 0 mm 2 m/S 753 mmHg 86%
    06:00 +12°C° 0 mm 2 m/S 753 mmHg 86%
    07:00 +13°C° 0.1 mm 2 m/S 753 mmHg 83%
    08:00 +14°C° 0.1 mm 2 m/S 753 mmHg 80%
    09:00 +14°C° 0.1 mm 3 m/S 753 mmHg 77%
    10:00 +14°C° 0.3 mm 3 m/S 753 mmHg 74%
    11:00 +16°C° 0.3 mm 3 m/S 753 mmHg 71%
    12:00 +17°C° 0.3 mm 3 m/S 753 mmHg 68%
    13:00 +15°C° 0.2 mm 4 m/S 753 mmHg 69%
    14:00 +15°C° 0.2 mm 4 m/S 752 mmHg 70%
    15:00 +15°C° 0.2 mm 4 m/S 752 mmHg 71%
    16:00 +14°C° 0.4 mm 4 m/S 752 mmHg 75%
    17:00 +14°C° 0.4 mm 4 m/S 752 mmHg 78%
    18:00 +13°C° 0.4 mm 4 m/S 753 mmHg 82%
    19:00 +13°C° 0.1 mm 3 m/S 753 mmHg 83%
    20:00 +13°C° 0.1 mm 3 m/S 754 mmHg 84%
    21:00 +13°C° 0.1 mm 2 m/S 754 mmHg 85%
    22:00 +13°C° 0 mm 2 m/S 754 mmHg 85%
    23:00 +13°C° 0 mm 2 m/S 754 mmHg 85%

    23 März, Samstag

    Zeit Temperatur Niederschläge Wind Luftdruck Luftfeuchtigkeit
    00:00 +13°C° 0 mm 2 m/S 754 mmHg 86%
    01:00 +12°C° 0 mm 2 m/S 753 mmHg 86%
    02:00 +12°C° 0 mm 1 m/S 753 mmHg 86%
    03:00 +12°C° 0 mm 1 m/S 753 mmHg 86%
    04:00 +12°C° 0 mm 1 m/S 753 mmHg 85%
    05:00 +11°C° 0 mm 1 m/S 753 mmHg 85%
    06:00 +11°C° 0 mm 1 m/S 753 mmHg 85%
    07:00 +12°C° 0 mm 2 m/S 753 mmHg 78%
    08:00 +14°C° 0 mm 2 m/S 753 mmHg 72%
    09:00 +15°C° 0 mm 2 m/S 754 mmHg 66%
    10:00 +16°C° 0 mm 2 m/S 753 mmHg 62%
    11:00 +17°C° 0 mm 3 m/S 753 mmHg 58%
    12:00 +18°C° 0 mm 3 m/S 753 mmHg 54%
    13:00 +18°C° 0 mm 4 m/S 752 mmHg 57%
    14:00 +17°C° 0 mm 5 m/S 752 mmHg 61%
    15:00 +16°C° 0 mm 5 m/S 752 mmHg 64%
    16:00 +15°C° 0 mm 5 m/S 751 mmHg 69%
    17:00 +14°C° 0 mm 5 m/S 751 mmHg 74%
    18:00 +13°C° 0 mm 5 m/S 751 mmHg 80%
    19:00 +13°C° 0 mm 4 m/S 752 mmHg 80%
    20:00 +13°C° 0 mm 4 m/S 752 mmHg 81%
    21:00 +12°C° 0 mm 3 m/S 752 mmHg 82%
    22:00 +12°C° 0 mm 3 m/S 752 mmHg 82%
    23:00 +12°C° 0 mm 3 m/S 752 mmHg 81%

    24 März, Sonntag

    Zeit Temperatur Niederschläge Wind Luftdruck Luftfeuchtigkeit
    00:00 +12°C° 0 mm 3 m/S 752 mmHg 81%
    01:00 +12°C° 0 mm 3 m/S 751 mmHg 80%
    02:00 +12°C° 0 mm 3 m/S 751 mmHg 78%
    03:00 +12°C° 0 mm 3 m/S 751 mmHg 77%
    04:00 +12°C° 0 mm 3 m/S 751 mmHg 75%
    05:00 +12°C° 0 mm 3 m/S 751 mmHg 74%
    06:00 +12°C° 0 mm 4 m/S 751 mmHg 73%
    07:00 +13°C° 0 mm 3 m/S 751 mmHg 67%
    08:00 +16°C° 0 mm 3 m/S 752 mmHg 62%
    09:00 +17°C° 0 mm 3 m/S 752 mmHg 57%
    10:00 +18°C° 0 mm 4 m/S 752 mmHg 56%
    11:00 +19°C° 0 mm 4 m/S 752 mmHg 55%
    12:00 +20°C° 0 mm 5 m/S 752 mmHg 54%
    13:00 +19°C° 0.3 mm 5 m/S 751 mmHg 58%
    14:00 +19°C° 0.3 mm 6 m/S 751 mmHg 62%
    15:00 +17°C° 0.3 mm 6 m/S 750 mmHg 66%
    16:00 +16°C° 0.1 mm 6 m/S 751 mmHg 69%
    17:00 +15°C° 0.1 mm 5 m/S 751 mmHg 73%
    18:00 +15°C° 0.1 mm 5 m/S 751 mmHg 77%
    19:00 +14°C° 0 mm 5 m/S 751 mmHg 79%
    20:00 +14°C° 0 mm 4 m/S 752 mmHg 81%
    21:00 +13°C° 0 mm 4 m/S 752 mmHg 83%
    22:00 +13°C° 0 mm 4 m/S 752 mmHg 84%
    23:00 +13°C° 0 mm 4 m/S 752 mmHg 85%

    25 März, Montag

    Zeit Temperatur Niederschläge Wind Luftdruck Luftfeuchtigkeit
    00:00 +12°C° 0 mm 3 m/S 751 mmHg 86%
    01:00 +12°C° 0 mm 3 m/S 751 mmHg 87%
    02:00 +12°C° 0 mm 3 m/S 751 mmHg 88%
    03:00 +12°C° 0 mm 3 m/S 751 mmHg 88%
    04:00 +12°C° 0 mm 3 m/S 751 mmHg 88%
    05:00 +12°C° 0 mm 3 m/S 752 mmHg 88%
    06:00 +13°C° 0 mm 2 m/S 752 mmHg 88%
    07:00 +13°C° 0 mm 2 m/S 752 mmHg 83%
    08:00 +13°C° 0 mm 3 m/S 752 mmHg 79%
    09:00 +14°C° 0 mm 3 m/S 752 mmHg 74%
    10:00 +16°C° 0 mm 3 m/S 752 mmHg 71%
    11:00 +17°C° 0 mm 4 m/S 752 mmHg 68%
    12:00 +17°C° 0 mm 4 m/S 752 mmHg 64%
    13:00 +17°C° 0 mm 4 m/S 752 mmHg 66%
    14:00 +16°C° 0 mm 5 m/S 751 mmHg 68%
    15:00 +16°C° 0 mm 5 m/S 751 mmHg 70%
    16:00 +15°C° 0 mm 5 m/S 751 mmHg 73%
    17:00 +14°C° 0 mm 4 m/S 751 mmHg 76%
    18:00 +14°C° 0 mm 4 m/S 752 mmHg 80%
    19:00 +13°C° 0 mm 4 m/S 752 mmHg 81%
    20:00 +13°C° 0 mm 3 m/S 753 mmHg 83%
    21:00 +12°C° 0 mm 3 m/S 753 mmHg 85%
    22:00 +13°C° 0 mm 2 m/S 753 mmHg 85%
    23:00 +13°C° 0 mm 2 m/S 753 mmHg 85%
    Mehr zeigen